Location: Radomski Observatory
(40.2854°N, 79.5145°W)
Time: 01:06:36
(UTC-04:00)

Amateur Radio Satellites - All Passes

Search period start: 28 August 2014 00:36
Search period end: 29 August 2014 00:36
Location: Radomski Observatory, 40.2854°N, 79.5145°W

Satellite Date Start Highest point End Downlink Frequencies (MHz)
Time Altitude Azimuth
MaSat-1 28 Aug 00:40:12 00:44:36 44° 252° (WSW) 00:48:24 437.345 MHz
Saudisat 1A 28 Aug 01:01:41 01:05:35 30° 311° (NW) 01:09:31 436.775 MHz
PCSat 28 Aug 01:44:17 01:47:12 14° 41° (NE) 01:50:06 145.825 MHz
KITSAT 1 28 Aug 01:56:37 02:04:19 46° 309° (NW) 02:12:03 435.175 FM
Oscar 19 28 Aug 01:59:06 02:03:07 22° 94° (E) 02:07:07 437.125 CW, 437.150 USB
ITAMSAT 1 28 Aug 02:24:49 02:28:04 17° 92° (E) 02:31:17 435.822 SSB
Oscar 16 28 Aug 02:32:40 02:37:43 48° 100° (E) 02:42:43 437.025 USB, Beacon 2401.1428
Uribyol 2 28 Aug 02:35:00 02:39:01 22° 94° (E) 02:43:02 436.500 FM
AO-Echo 28 Aug 02:51:13 02:55:24 31° 97° (E) 02:59:34 ?
AO-27 28 Aug 02:51:58 02:56:33 31° 96° (E) 03:01:06 436.795 MHz FM
Sapphire 28 Aug 02:56:22 03:01:32 43° 55° (NE) 03:06:40 437.095 MHz 1200 baud AX-25 AFSK
Gurwin Techsat 1B 28 Aug 03:03:01 03:06:32 18° 92° (E) 03:10:01 435.225 FM
PCSat 28 Aug 03:26:03 03:31:31 80° 61° (ENE) 03:36:55 145.825 MHz
Oscar 19 28 Aug 03:37:43 03:42:37 43° 290° (WNW) 03:47:30 437.125 CW, 437.150 USB
JAS-1B 28 Aug 03:47:18 03:54:19 79° 103° (ESE) 04:00:17 435.800 - 435.900 CW/SSB
OPAL 28 Aug 03:55:05 03:59:17 27° 64° (ENE) 04:03:33 ?
TMSAT-1 28 Aug 03:55:31 04:00:30 40° 98° (E) 04:05:27 436.925 FM
KITSAT 1 28 Aug 03:57:59 04:02:07 15° 335° (NNW) 04:06:16 435.175 FM
ITAMSAT 1 28 Aug 04:02:50 04:07:55 58° 288° (WNW) 04:12:59 435.822 SSB
Oscar 16 28 Aug 04:12:52 04:16:42 21° 296° (WNW) 04:20:31 437.025 USB, Beacon 2401.1428
Uribyol 2 28 Aug 04:13:46 04:18:39 43° 290° (WNW) 04:23:32 436.500 FM
AO-Echo 28 Aug 04:30:13 04:34:04 26° 293° (WNW) 04:37:54 ?
SO-50 28 Aug 04:30:19 04:34:22 35° 115° (ESE) 04:38:30 436.795 FM
AO-27 28 Aug 04:31:28 04:36:00 31° 293° (WNW) 04:40:31 436.795 MHz FM
Sapphire 28 Aug 04:40:15 04:44:43 27° 252° (WSW) 04:49:09 437.095 MHz 1200 baud AX-25 AFSK
Gurwin Techsat 1B 28 Aug 04:41:38 04:46:50 56° 288° (WNW) 04:52:00 435.225 FM
AO-7 28 Aug 04:54:22 05:01:48 35° 98° (E) 05:09:09 29.400 - 29.500 MHz
PCSat 28 Aug 05:11:46 05:14:11 13° 257° (WSW) 05:16:35 145.825 MHz
Uosat F 28 Aug 05:17:09 05:21:57 45° 99° (E) 05:26:43 435.120 FM
OPAL 28 Aug 05:33:24 05:38:00 36° 261° (W) 05:42:41 ?
TMSAT-1 28 Aug 05:35:54 05:40:11 25° 294° (WNW) 05:44:26 436.925 FM
JAS-1B 28 Aug 05:39:33 05:43:51 18° 306° (NW) 05:47:48 435.800 - 435.900 CW/SSB
SO-50 28 Aug 06:11:08 06:14:58 27° 313° (NW) 06:18:53 436.795 FM
UOSAT-12 28 Aug 06:46:03 06:50:36 66° 119° (ESE) 06:55:16 437.025 FM, 437.400 FM
Hamsat 28 Aug 06:46:09 06:50:12 36° 97° (E) 06:54:11 145.90 MHz
AO-7 28 Aug 06:46:51 06:54:46 52° 296° (WNW) 07:02:39 29.400 - 29.500 MHz
Uosat F 28 Aug 06:56:43 07:00:25 21° 296° (WNW) 07:04:07 435.120 FM
STRAND 1 28 Aug 07:11:46 07:16:51 80° 75° (ENE) 07:21:58 ?
JAS-2 28 Aug 07:33:25 07:38:39 89° 285° (WNW) 07:44:12 435.800 - 435.900 CW/SSB, 435.910 FM
Saudisat 1A 28 Aug 07:49:18 07:52:51 23° 46° (NE) 07:56:24 436.775 MHz
KITSAT 1 28 Aug 07:55:07 08:01:15 23° 37° (NE) 08:07:21 435.175 FM
SO-67 28 Aug 08:05:28 08:08:44 38° 98° (E) 08:11:59 435.3500 MHz FM
RS-15 28 Aug 08:11:56 08:22:25 50° 111° (ESE) 08:32:43 29.354 - 29.394 USB, Beacon 29.352 USB
Hamsat 28 Aug 08:22:44 08:25:54 20° 293° (WNW) 08:29:02 145.90 MHz
UOSAT-12 28 Aug 08:27:59 08:31:13 18° 318° (NW) 08:34:29 437.025 FM, 437.400 FM
AO-7 28 Aug 08:43:25 08:45:37 11° 317° (NW) 08:47:50 29.400 - 29.500 MHz
STRAND 1 28 Aug 08:55:09 08:56:37 11° 271° (W) 08:58:05 ?
JAS-2 28 Aug 09:21:51 09:23:03 11° 301° (WNW) 09:24:16 435.800 - 435.900 CW/SSB, 435.910 FM
Saudisat 1A 28 Aug 09:28:26 09:32:35 41° 244° (WSW) 09:36:42 436.775 MHz
HO-68 28 Aug 09:40:02 09:46:28 35° 97° (E) 09:52:52 435.675 MHz FM
SO-67 28 Aug 09:40:07 09:41:25 12° 294° (WNW) 09:42:43 435.3500 MHz FM
KITSAT 1 28 Aug 09:49:48 09:57:56 83° 60° (ENE) 10:06:00 435.175 FM
UKube-1 28 Aug 09:56:12 09:59:26 20° 95° (E) 10:02:39 145.840 MHz, 145.915 MHz
Oscar 11 28 Aug 10:05:36 10:08:26 17° 92° (E) 10:11:15 145.825 FM, Beacon 2401.500 USB
RS-15 28 Aug 10:24:11 10:34:46 50° 313° (NW) 10:45:18 29.354 - 29.394 USB, Beacon 29.352 USB
FUNcube-1 28 Aug 10:25:04 10:26:09 11° 90° (E) 10:27:13 145.950 - 145.970 MHz USB
HO-68 28 Aug 11:27:33 11:34:14 45° 294° (WNW) 11:40:55 435.675 MHz FM
UKube-1 28 Aug 11:31:47 11:35:43 34° 290° (WNW) 11:39:38 145.840 MHz, 145.915 MHz
Oscar 11 28 Aug 11:40:40 11:44:48 42° 288° (WNW) 11:48:54 145.825 FM, Beacon 2401.500 USB
KITSAT 1 28 Aug 11:46:54 11:52:20 20° 258° (WSW) 11:57:46 435.175 FM
FUNcube-1 28 Aug 11:58:27 12:02:57 70° 285° (WNW) 12:07:30 145.950 - 145.970 MHz USB
AO-40 28 Aug 12:07:39 03:02:35 41° 183° (S) 12:21:29 Beacon 2401.320
ISS 28 Aug 12:12:50 12:16:09 84° 142° (SE) 12:19:29 145.800 FM
JAS-1B 28 Aug 12:42:25 12:47:58 18° 54° (NE) 12:53:12 435.800 - 435.900 CW/SSB
RS-15 28 Aug 12:43:03 12:50:42 21° 345° (NNW) 12:58:25 29.354 - 29.394 USB, Beacon 29.352 USB
SO-50 28 Aug 13:02:04 13:06:20 31° 49° (NE) 13:10:39 436.795 FM
Oscar 19 28 Aug 13:15:25 13:19:54 31° 67° (ENE) 13:24:25 437.125 CW, 437.150 USB
ITAMSAT 1 28 Aug 13:42:11 13:46:19 25° 65° (ENE) 13:50:29 435.822 SSB
Oscar 16 28 Aug 13:49:04 13:54:10 67° 74° (ENE) 13:59:19 437.025 USB, Beacon 2401.1428
ISS 28 Aug 13:50:46 13:53:15 19° 340° (NNW) 13:55:44 145.800 FM
Uribyol 2 28 Aug 13:52:21 13:56:53 33° 68° (ENE) 14:01:27 436.500 FM
AO-Echo 28 Aug 14:03:25 14:08:10 41° 71° (ENE) 14:12:47 ?
AO-7 28 Aug 14:09:21 14:09:44 10° 42° (NE) 14:10:08 29.400 - 29.500 MHz
AO-27 28 Aug 14:09:34 14:14:29 45° 70° (ENE) 14:19:24 436.795 MHz FM
Gurwin Techsat 1B 28 Aug 14:23:24 14:27:49 28° 66° (ENE) 14:32:14 435.225 FM
MaSat-1 28 Aug 14:26:41 14:31:31 83° 114° (ESE) 14:36:43 437.345 MHz
JAS-1B 28 Aug 14:27:20 14:37:06 70° 71° (ENE) 14:46:01 435.800 - 435.900 CW/SSB
SO-50 28 Aug 14:42:36 14:46:54 33° 246° (WSW) 14:51:13 436.795 FM
Oscar 19 28 Aug 14:54:38 14:59:10 31° 264° (W) 15:03:45 437.125 CW, 437.150 USB
RS-15 28 Aug 15:00:25 15:08:40 23° 22° (NNE) 15:17:04 29.354 - 29.394 USB, Beacon 29.352 USB
TMSAT-1 28 Aug 15:15:43 15:20:54 60° 73° (ENE) 15:26:07 436.925 FM
PANSAT 28 Aug 15:15:57 15:18:02 14° 179° (S) 15:20:08 not established
UOSAT-12 28 Aug 15:16:14 15:20:51 49° 53° (NE) 15:25:22 437.025 FM, 437.400 FM
ITAMSAT 1 28 Aug 15:20:46 15:25:35 39° 262° (W) 15:30:26 435.822 SSB
ISS 28 Aug 15:29:41 15:31:00 12° 1° (N) 15:32:19 145.800 FM
Oscar 16 28 Aug 15:31:20 15:33:59 14° 270° (W) 15:36:39 437.025 USB, Beacon 2401.1428
Uribyol 2 28 Aug 15:31:52 15:36:20 29° 264° (W) 15:40:49 436.500 FM
AO-Echo 28 Aug 15:43:10 15:47:03 22° 266° (W) 15:50:52 ?
AO-27 28 Aug 15:50:19 15:54:11 21° 266° (W) 15:58:05 436.795 MHz FM
AO-7 28 Aug 15:52:37 16:00:27 47° 63° (ENE) 16:08:16 29.400 - 29.500 MHz
Gurwin Techsat 1B 28 Aug 16:02:43 16:07:36 37° 263° (W) 16:12:31 435.225 FM
MaSat-1 28 Aug 16:06:16 16:09:17 16° 313° (NW) 16:12:22 437.345 MHz
JAS-1B 28 Aug 16:19:39 16:27:55 30° 267° (W) 16:35:44 435.800 - 435.900 CW/SSB
Uosat F 28 Aug 16:29:51 16:34:46 60° 73° (ENE) 16:39:42 435.120 FM
PANSAT 28 Aug 16:56:35 16:57:28 11° 192° (SSW) 16:58:22 not established
UOSAT-12 28 Aug 16:57:18 17:00:37 19° 250° (WSW) 17:03:53 437.025 FM, 437.400 FM
TMSAT-1 28 Aug 16:57:58 17:01:12 16° 269° (W) 17:04:28 436.925 FM
ISS 28 Aug 17:06:11 17:08:45 20° 21° (NNE) 17:11:18 145.800 FM
RS-15 28 Aug 17:13:02 17:23:59 60° 51° (NE) 17:35:18 29.354 - 29.394 USB, Beacon 29.352 USB
Oscar 10/S400 28 Aug 17:36:09 17:52:42 32° 146° (SE) 18:15:30 145.825 - 145.975 CW/USB, Beacon 145.810 USB
Sapphire 28 Aug 17:37:42 17:42:46 43° 112° (ESE) 17:47:51 437.095 MHz 1200 baud AX-25 AFSK
Hamsat 28 Aug 17:39:19 17:42:51 25° 69° (ENE) 17:46:24 145.90 MHz
OPAL 28 Aug 17:43:08 17:48:19 62° 103° (ESE) 17:53:28 ?
JAS-2 28 Aug 17:45:11 17:50:51 37° 69° (ENE) 17:55:58 435.800 - 435.900 CW/SSB, 435.910 FM
AO-7 28 Aug 17:45:37 17:53:16 40° 261° (W) 18:00:58 29.400 - 29.500 MHz
PCSat 28 Aug 18:07:01 18:12:25 83° 117° (ESE) 18:17:52 145.825 MHz
Uosat F 28 Aug 18:11:05 18:13:56 15° 268° (W) 18:16:47 435.120 FM
SO-67 28 Aug 18:39:36 18:41:16 13° 67° (ENE) 18:42:56 435.3500 MHz FM
ISS 28 Aug 18:42:28 18:45:48 76° 219° (SW) 18:49:07 145.800 FM
Hamsat 28 Aug 19:15:01 19:18:42 27° 265° (W) 19:22:25 145.90 MHz
Sapphire 28 Aug 19:21:40 19:26:19 29° 310° (NW) 19:30:59 437.095 MHz 1200 baud AX-25 AFSK
OPAL 28 Aug 19:23:16 19:26:41 18° 300° (WNW) 19:30:06 ?
STRAND 1 28 Aug 19:23:24 19:27:45 28° 96° (E) 19:32:04 ?
RS-15 28 Aug 19:25:55 19:35:53 40° 252° (WSW) 19:46:15 29.354 - 29.394 USB, Beacon 29.352 USB
JAS-2 28 Aug 19:30:21 19:35:56 32° 263° (W) 19:41:01 435.800 - 435.900 CW/SSB, 435.910 FM
PCSat 28 Aug 19:53:03 19:56:32 17° 317° (NW) 20:00:02 145.825 MHz
HO-68 28 Aug 20:08:57 20:14:36 26° 59° (ENE) 20:20:14 435.675 MHz FM
SO-67 28 Aug 20:10:49 20:14:00 34° 263° (W) 20:17:12 435.3500 MHz FM
UKube-1 28 Aug 20:51:51 20:54:46 18° 65° (ENE) 20:57:41 145.840 MHz, 145.915 MHz
Oscar 11 28 Aug 21:01:16 21:03:22 13° 63° (ENE) 21:05:29 145.825 FM, Beacon 2401.500 USB
STRAND 1 28 Aug 21:02:23 21:06:56 34° 292° (WNW) 21:11:30 ?
HO-68 28 Aug 21:54:43 22:01:46 62° 257° (WSW) 22:08:51 435.675 MHz FM
UKube-1 28 Aug 22:26:32 22:30:39 41° 261° (W) 22:34:46 145.840 MHz, 145.915 MHz
Oscar 11 28 Aug 22:34:48 22:39:04 57° 260° (W) 22:43:22 145.825 FM, Beacon 2401.500 USB
MaSat-1 28 Aug 22:46:04 22:49:21 19° 49° (NE) 22:52:22 437.345 MHz
FUNcube-1 28 Aug 22:54:26 22:58:36 87° 75° (ENE) 23:02:51 145.950 - 145.970 MHz USB
Saudisat 1A 28 Aug 23:33:58 23:38:17 57° 118° (ESE) 23:42:37 436.775 MHz
KITSAT 1 29 Aug 00:16:56 00:24:52 63° 114° (ESE) 00:32:50 435.175 FM
MaSat-1 29 Aug 00:22:22 00:26:48 48° 251° (WSW) 00:30:37 437.345 MHz
